TimeCST,TemperatureF,Dew PointF,Humidity,Sea Level PressureIn,VisibilityMPH,Wind Direction,Wind SpeedMPH,Gust SpeedMPH,PrecipitationIn,Events,Conditions,WindDirDegrees,DateUTC
12:15 AM,65.5,63.5,93,30.17,10.0,South,12.7,-,N/A,,Clear,180,2013-01-25 06:15:00
12:35 AM,65.1,63.3,94,30.17,10.0,South,10.4,-,N/A,,Clear,180,2013-01-25 06:35:00
12:55 AM,64.6,62.8,94,30.17,10.0,South,10.4,-,N/A,,Clear,180,2013-01-25 06:55:00
1:15 AM,64.4,62.8,94,30.16,10.0,South,11.5,-,N/A,,Clear,180,2013-01-25 07:15:00
1:35 AM,64.4,62.6,94,30.16,10.0,South,10.4,17.3,N/A,,Clear,180,2013-01-25 07:35:00
1:55 AM,64.2,62.6,94,30.16,10.0,South,10.4,-,N/A,,Clear,180,2013-01-25 07:55:00
2:15 AM,63.7,62.2,95,30.15,10.0,South,11.5,-,N/A,,Clear,180,2013-01-25 08:15:00
2:35 AM,63.3,61.9,95,30.14,10.0,South,9.2,16.1,N/A,,Clear,180,2013-01-25 08:35:00
2:55 AM,63.1,61.7,95,30.14,10.0,South,9.2,-,N/A,,Clear,180,2013-01-25 08:55:00
3:15 AM,63.0,61.7,96,30.13,10.0,South,9.2,-,N/A,,Clear,180,2013-01-25 09:15:00
3:35 AM,63.1,61.7,95,30.12,10.0,South,9.2,-,N/A,,Clear,180,2013-01-25 09:35:00
3:55 AM,63.0,61.7,96,30.12,10.0,South,9.2,-,N/A,,Clear,170,2013-01-25 09:55:00
4:15 AM,62.8,61.5,96,30.12,7.0,South,8.1,-,N/A,,Clear,180,2013-01-25 10:15:00
4:35 AM,62.6,61.3,96,30.12,7.0,South,6.9,-,N/A,,Clear,170,2013-01-25 10:35:00
4:55 AM,62.4,61.0,95,30.12,7.0,South,5.8,-,N/A,,Clear,170,2013-01-25 10:55:00
5:15 AM,61.9,60.8,96,30.12,7.0,South,4.6,-,N/A,,Clear,170,2013-01-25 11:15:00
5:35 AM,61.5,60.3,96,30.11,7.0,South,6.9,-,N/A,,Clear,170,2013-01-25 11:35:00
5:55 AM,61.9,60.6,96,30.12,7.0,South,6.9,-,N/A,,Clear,170,2013-01-25 11:55:00
6:15 AM,62.2,61.0,96,30.12,10.0,South,8.1,-,N/A,,Clear,180,2013-01-25 12:15:00
6:35 AM,62.6,61.3,96,30.12,10.0,South,8.1,-,N/A,,Clear,180,2013-01-25 12:35:00
6:55 AM,62.6,61.5,96,30.12,10.0,South,8.1,-,N/A,,Clear,190,2013-01-25 12:55:00
7:35 AM,62.6,61.3,96,30.13,7.0,South,6.9,-,N/A,,Clear,170,2013-01-25 13:35:00
7:55 AM,63.1,61.9,96,30.13,10.0,South,6.9,-,N/A,,Clear,180,2013-01-25 13:55:00
8:15 AM,64.0,62.8,96,30.14,10.0,South,3.5,-,N/A,,Clear,190,2013-01-25 14:15:00
8:35 AM,65.5,64.0,95,30.14,10.0,South,8.1,-,N/A,,Clear,180,2013-01-25 14:35:00
8:55 AM,66.7,64.8,93,30.14,10.0,South,8.1,-,N/A,,Clear,180,2013-01-25 14:55:00
9:15 AM,68.4,65.3,90,30.15,10.0,South,11.5,-,N/A,,Clear,180,2013-01-25 15:15:00
9:35 AM,69.8,65.5,86,30.15,10.0,South,12.7,16.1,N/A,,Clear,180,2013-01-25 15:35:00
9:55 AM,70.7,65.5,83,30.16,10.0,South,11.5,17.3,N/A,,Clear,190,2013-01-25 15:55:00
10:15 AM,72.1,65.7,80,30.17,10.0,South,12.7,19.6,N/A,,Clear,180,2013-01-25 16:15:00
10:35 AM,73.0,65.7,78,30.17,10.0,South,15.0,20.7,N/A,,Clear,180,2013-01-25 16:35:00
10:55 AM,74.1,65.5,74,30.17,10.0,South,17.3,-,N/A,,Clear,180,2013-01-25 16:55:00
11:15 AM,75.0,65.3,72,30.17,10.0,SSW,13.8,21.9,N/A,,Clear,200,2013-01-25 17:15:00
11:35 AM,76.1,64.9,68,30.17,10.0,South,15.0,20.7,N/A,,Clear,190,2013-01-25 17:35:00
11:55 AM,76.6,64.6,66,30.16,10.0,South,17.3,21.9,N/A,,Clear,180,2013-01-25 17:55:00
12:15 PM,77.0,64.4,65,30.15,10.0,South,16.1,25.3,N/A,,Clear,190,2013-01-25 18:15:00
12:35 PM,77.7,64.4,63,30.13,10.0,South,18.4,23.0,N/A,,Clear,180,2013-01-25 18:35:00
12:55 PM,77.7,64.2,63,30.12,10.0,South,16.1,27.6,N/A,,Clear,180,2013-01-25 18:55:00
1:15 PM,77.7,64.4,63,30.11,10.0,South,18.4,24.2,N/A,,Clear,180,2013-01-25 19:15:00
1:35 PM,78.1,64.6,63,30.10,10.0,South,16.1,20.7,N/A,,Clear,170,2013-01-25 19:35:00
1:55 PM,78.3,64.8,63,30.09,10.0,South,16.1,21.9,N/A,,Clear,180,2013-01-25 19:55:00
2:15 PM,78.1,64.8,63,30.08,10.0,SSE,19.6,26.5,N/A,,Clear,150,2013-01-25 20:15:00
2:35 PM,77.4,64.8,65,30.08,10.0,South,17.3,25.3,N/A,,Clear,170,2013-01-25 20:35:00
2:55 PM,77.2,64.9,66,30.07,10.0,SSE,17.3,24.2,N/A,,Clear,160,2013-01-25 20:55:00
3:15 PM,76.8,64.8,66,30.06,10.0,SSE,18.4,25.3,N/A,,Clear,160,2013-01-25 21:15:00
3:35 PM,76.5,64.9,67,30.06,10.0,South,19.6,26.5,N/A,,Clear,170,2013-01-25 21:35:00
3:55 PM,75.7,64.8,69,30.05,10.0,SSE,18.4,24.2,N/A,,Clear,160,2013-01-25 21:55:00
4:15 PM,75.4,64.6,69,30.05,10.0,SSE,18.4,25.3,N/A,,Clear,160,2013-01-25 22:15:00
4:35 PM,74.7,64.6,71,30.05,10.0,SSE,15.0,20.7,N/A,,Clear,160,2013-01-25 22:35:00
4:55 PM,73.9,64.8,73,30.05,10.0,SSE,16.1,21.9,N/A,,Clear,160,2013-01-25 22:55:00
5:15 PM,73.0,65.1,76,30.06,10.0,SSE,15.0,19.6,N/A,,Clear,150,2013-01-25 23:15:00
5:35 PM,71.8,65.3,80,30.06,10.0,SSE,13.8,20.7,N/A,,Clear,160,2013-01-25 23:35:00
5:55 PM,70.3,64.9,83,30.07,10.0,SSE,12.7,-,N/A,,Clear,160,2013-01-25 23:55:00
6:15 PM,69.6,64.6,84,30.07,10.0,SSE,16.1,-,N/A,,Clear,160,2013-01-26 00:15:00
6:35 PM,69.3,64.8,86,30.07,10.0,SSE,15.0,20.7,N/A,,Clear,160,2013-01-26 00:35:00
6:55 PM,68.9,64.8,87,30.07,10.0,SSE,11.5,-,N/A,,Clear,150,2013-01-26 00:55:00
7:15 PM,68.7,64.9,88,30.07,10.0,SSE,12.7,-,N/A,,Clear,150,2013-01-26 01:15:00
7:35 PM,68.5,65.3,89,30.08,10.0,SSE,13.8,-,N/A,,Clear,160,2013-01-26 01:35:00
7:55 PM,68.5,65.5,90,30.08,10.0,SSE,15.0,20.7,N/A,,Clear,160,2013-01-26 01:55:00
8:15 PM,68.5,65.5,90,30.08,10.0,SSE,15.0,19.6,N/A,,Clear,160,2013-01-26 02:15:00
8:35 PM,68.4,65.3,90,30.08,10.0,SSE,13.8,18.4,N/A,,Clear,160,2013-01-26 02:35:00
8:55 PM,68.2,65.3,90,30.08,10.0,SSE,15.0,-,N/A,,Clear,160,2013-01-26 02:55:00
9:15 PM,68.2,65.3,90,30.09,10.0,SSE,15.0,19.6,N/A,,Clear,160,2013-01-26 03:15:00
9:35 PM,68.2,65.3,90,30.09,10.0,SSE,13.8,20.7,N/A,,Clear,160,2013-01-26 03:35:00
9:55 PM,68.2,65.3,90,30.09,10.0,SSE,15.0,19.6,N/A,,Clear,160,2013-01-26 03:55:00
10:15 PM,68.2,65.3,90,30.10,10.0,SSE,12.7,-,N/A,,Clear,160,2013-01-26 04:15:00
10:35 PM,68.4,65.3,90,30.10,10.0,South,13.8,18.4,N/A,,Clear,170,2013-01-26 04:35:00
10:55 PM,68.4,65.1,89,30.11,10.0,South,13.8,-,N/A,,Clear,170,2013-01-26 04:55:00
11:15 PM,68.4,65.3,90,30.11,10.0,South,13.8,18.4,N/A,,Clear,170,2013-01-26 05:15:00
11:35 PM,68.2,65.3,90,30.11,10.0,South,11.5,17.3,N/A,,Clear,170,2013-01-26 05:35:00
11:55 PM,68.0,65.3,91,30.11,10.0,South,11.5,-,N/A,,Clear,170,2013-01-26 05:55:00